Погода в Унгенах

Молдова     47°12′39″N   27°47′56″E
темп.,
°C
ветер,
м/с
пор.,
м/с
влажн.,
%
обл.,
%
осадки,
мм/ч
давл.,
гПа
погр.,
м
14 мая, пт
пт1400:00+11юв614819 0.0 1006429
03:00+9юв3785100 0.0 1006161
06:00+8вюв2288100 0.0 100535
09:00+12ю368797 0.6 1006287
12:00+16з337734 1.0 1007437
15:00+19юз23575 1.3 1007895
18:00+20юз47555 0.5 10061444
21:00+13зсз37825 0.9 1008123
15 мая, сб
сб1500:00+11ююз1184100 0.0 101010
03:00+10ю11845 0.0 101010
06:00+10ююв2284100 0.0 101116
09:00+15ю116516 0.0 1012262
12:00+20сз234967 0.0 10121588
15:00+22с234473 0.0 10111847
18:00+22в334627 0.0 10101217
21:00+15с22836 0.1 101155
16 мая, вс
вс1600:00+14всв11785 0.0 101111
03:00+12юв1183100 0.0 101111
06:00+12вюв118641 0.0 101112
09:00+18ююв4663100 0.0 1011458
12:00+22ююв5650100 0.0 10101180
15:00+24ююв674117 0.0 10092138
18:00+24ююв36477 0.0 10072157
21:00+20юв51157100 0.0 1007368
17 мая, пн
пн1700:00+15ююв3472100 0.1 100751
03:00+13ссз2392100 0.9 100757
06:00+13сз4995100 0.1 1007432
09:00+16сз69787 0.1 1009698
12:00+20ссз675832 0.1 10081499
15:00+22сз454869 0.3 10082072
18:00+20ссз12570 0.0 1007241
21:00+16вюв1163100 0.0 100811
18 мая, вт
вт1800:00+16в116652 0.0 100811
03:00+14вюв227670 0.3 100716
06:00+12юв2286100 0.2 100715
09:00+16ююз12785 0.6 1007235
12:00+22з4652100 0.0 10071818
15:00+20сз5660100 1.1 1006905
18:00+17сз6871100 1.6 1008566
21:00+14сз478017 1.6 1009279